Station Historical Data
Daily Summary for April 12, 2017 Units:  English    Metric   Both
Next Day »
Daily Weekly Monthly Yearly Custom
  High: Low: Average:
Temperature: 53.5 °F 45.9 °F 48.8 °F
Dew Point: 50.6 °F 42.5 °F 45.4 °F
Humidity: 90% 83% 88%
Wind Speed: 24.0mph 0.0mph 4.4mph
Wind Gust: 26.0mph - -
Wind- - South
Pressure: 30.06 in 29.90 in -
Precipitation: 0.00 in    
Historical Graphs
 
 
Tabular Data for April 12, 2017
Time Temperature Dew Point Pressure Wind Wind Speed Wind Gust Humidity Rainfall Rate (Hourly) solar Conditions
00:00 48.3 °F 43.4 °F 30.06 in Calm     83% 0.00 in 0.00 W/m2
00:05 48.3 °F 43.4 °F 30.06 in Calm     83% 0.00 in 0.00 W/m2
00:10 48.2 °F 43.3 °F 30.06 in Calm     83% 0.00 in 0.00 W/m2
00:15 48.1 °F 43.2 °F 30.06 in Calm     83% 0.00 in 0.00 W/m2
00:20 48.1 °F 43.5 °F 30.06 in Calm     84% 0.00 in 0.00 W/m2
00:25 48.0 °F 43.4 °F 30.06 in Calm     84% 0.00 in 0.00 W/m2
00:30 48.0 °F 43.4 °F 30.06 in Calm     84% 0.00 in 0.00 W/m2
00:35 47.9 °F 43.3 °F 30.06 in Calm     84% 0.00 in 0.00 W/m2
00:40 47.9 °F 43.3 °F 30.06 in Calm     84% 0.00 in 0.00 W/m2
00:45 47.9 °F 43.6 °F 30.06 in Calm     85% 0.00 in 0.00 W/m2
00:50 47.9 °F 43.6 °F 30.06 in Calm     85% 0.00 in 0.00 W/m2
00:55 47.9 °F 43.6 °F 30.06 in Calm     85% 0.00 in 0.00 W/m2
01:00 47.9 °F 43.6 °F 30.06 in Calm     85% 0.00 in 0.00 W/m2
01:05 47.8 °F 43.8 °F 30.06 in Calm     86% 0.00 in 0.00 W/m2
01:10 47.8 °F 43.5 °F 30.06 in Calm     85% 0.00 in 0.00 W/m2
01:15 47.7 °F 43.4 °F 30.05 in Calm     85% 0.00 in 0.00 W/m2
01:20 47.7 °F 43.4 °F 30.06 in Calm     85% 0.00 in 0.00 W/m2
01:26 47.7 °F 43.4 °F 30.06 in Calm     85% 0.00 in 0.00 W/m2
01:36 47.7 °F 43.4 °F 30.06 in Calm     85% 0.00 in 0.00 W/m2
01:41 47.7 °F 43.4 °F 30.05 in Calm     85% 0.00 in 0.00 W/m2
01:46 47.6 °F 43.3 °F 30.05 in Calm     85% 0.00 in 0.00 W/m2
01:51 47.6 °F 43.3 °F 30.05 in Calm     85% 0.00 in 0.00 W/m2
01:56 47.5 °F 43.5 °F 30.05 in Calm     86% 0.00 in 0.00 W/m2
02:01 47.5 °F 43.5 °F 30.05 in Calm     86% 0.00 in 0.00 W/m2
02:06 47.4 °F 43.1 °F 30.04 in Calm     85% 0.00 in 0.00 W/m2
02:11 47.3 °F 43.0 °F 30.04 in Calm     85% 0.00 in 0.00 W/m2
02:16 47.2 °F 42.9 °F 30.04 in Calm     85% 0.00 in 0.00 W/m2
02:21 47.1 °F 42.8 °F 30.04 in Calm     85% 0.00 in 0.00 W/m2
02:26 46.9 °F 42.6 °F 30.04 in Calm     85% 0.00 in 0.00 W/m2
02:31 46.8 °F 42.5 °F 30.04 in Calm     85% 0.00 in 0.00 W/m2
02:36 46.7 °F 42.7 °F 30.04 in Calm     86% 0.00 in 0.00 W/m2
02:46 46.5 °F 42.5 °F 30.04 in Calm     86% 0.00 in 0.00 W/m2
02:51 46.4 °F 42.8 °F 30.03 in Calm     87% 0.00 in 0.00 W/m2
02:56 46.3 °F 42.7 °F 30.03 in Calm     87% 0.00 in 0.00 W/m2
03:01 46.3 °F 42.7 °F 30.03 in Calm     87% 0.00 in 0.00 W/m2
03:06 46.3 °F 42.7 °F 30.03 in Calm     87% 0.00 in 0.00 W/m2
03:11 46.4 °F 42.8 °F 30.03 in Calm     87% 0.00 in 0.00 W/m2
03:16 46.4 °F 42.8 °F 30.03 in Calm     87% 0.00 in 0.00 W/m2
03:21 46.4 °F 42.8 °F 30.03 in Calm     87% 0.00 in 0.00 W/m2
03:26 46.5 °F 42.8 °F 30.03 in Calm     87% 0.00 in 0.00 W/m2
03:31 46.5 °F 42.8 °F 30.03 in Calm     87% 0.00 in 0.00 W/m2
03:36 46.6 °F 43.2 °F 30.03 in Calm     88% 0.00 in 0.00 W/m2
03:41 46.6 °F 42.9 °F 30.03 in Calm     87% 0.00 in 0.00 W/m2
03:46 46.7 °F 43.0 °F 30.03 in SE 2.0 mph 10.0 mph 87% 0.00 in 0.00 W/m2
03:51 46.7 °F 43.0 °F 30.03 in SSE 7.0 mph 7.0 mph 87% 0.00 in 0.00 W/m2
03:56 46.8 °F 43.1 °F 30.03 in SE 5.0 mph 5.0 mph 87% 0.00 in 0.00 W/m2
04:01 46.8 °F 43.1 °F 30.03 in Calm     87% 0.00 in 0.00 W/m2
04:06 46.9 °F 43.2 °F 30.03 in Calm   4.0 mph 87% 0.00 in 0.00 W/m2
04:11 47.0 °F 43.3 °F 30.03 in Calm     87% 0.00 in 0.00 W/m2
04:16 47.0 °F 43.3 °F 30.03 in Calm     87% 0.00 in 0.00 W/m2
04:21 47.1 °F 43.4 °F 30.03 in SE 6.0 mph 6.0 mph 87% 0.00 in 0.00 W/m2
04:26 47.1 °F 43.4 °F 30.02 in SE 6.0 mph 7.0 mph 87% 0.00 in 0.00 W/m2
04:31 47.1 °F 43.4 °F 30.02 in SE 7.0 mph 8.0 mph 87% 0.00 in 0.00 W/m2
04:36 47.1 °F 43.4 °F 30.02 in SE 5.0 mph 5.0 mph 87% 0.00 in 0.00 W/m2
04:41 47.1 °F 43.4 °F 30.02 in SE 4.0 mph 5.0 mph 87% 0.00 in 0.00 W/m2
04:46 47.1 °F 43.4 °F 30.02 in Calm     87% 0.00 in 0.00 W/m2
04:51 47.1 °F 43.4 °F 30.02 in SE 6.0 mph 7.0 mph 87% 0.00 in 0.00 W/m2
04:56 47.1 °F 43.4 °F 30.02 in Calm     87% 0.00 in 0.00 W/m2
05:01 47.1 °F 43.7 °F 30.02 in SE 1.0 mph 8.0 mph 88% 0.00 in 0.00 W/m2
05:06 47.1 °F 43.7 °F 30.02 in Calm   4.0 mph 88% 0.00 in 0.00 W/m2
05:11 47.2 °F 43.8 °F 30.01 in Calm   2.0 mph 88% 0.00 in 0.00 W/m2
05:16 47.1 °F 43.7 °F 30.01 in Calm     88% 0.00 in 0.00 W/m2
05:21 47.1 °F 43.4 °F 30.00 in Calm     87% 0.00 in 0.00 W/m2
05:26 47.1 °F 43.4 °F 30.00 in SE 8.0 mph 8.0 mph 87% 0.00 in 0.00 W/m2
05:27 47.1 °F 43.4 °F 30.00 in Calm   9.0 mph 87% 0.00 in 0.00 W/m2
05:32 47.1 °F 43.4 °F 30.00 in Calm   5.0 mph 87% 0.00 in 0.00 W/m2
05:37 47.0 °F 43.3 °F 30.00 in SE 2.0 mph 5.0 mph 87% 0.00 in 0.00 W/m2
05:42 47.0 °F 43.3 °F 30.00 in SE 2.0 mph 12.0 mph 87% 0.00 in 0.00 W/m2
05:47 47.0 °F 43.3 °F 30.00 in Calm   6.0 mph 87% 0.00 in 0.00 W/m2
05:52 46.9 °F 43.2 °F 30.00 in Calm   2.0 mph 87% 0.00 in 0.00 W/m2
05:57 46.8 °F 43.1 °F 30.01 in SE 2.0 mph 7.0 mph 87% 0.00 in 0.00 W/m2
05:58 46.8 °F 43.1 °F 30.01 in SE 5.0 mph 7.0 mph 87% 0.00 in 0.00 W/m2
06:03 46.7 °F 43.0 °F 30.01 in SE 4.0 mph 6.0 mph 87% 0.00 in 0.00 W/m2
06:08 46.7 °F 43.0 °F 30.00 in SE 1.0 mph 7.0 mph 87% 0.00 in 0.00 W/m2
06:13 46.6 °F 42.9 °F 30.00 in Calm   8.0 mph 87% 0.00 in 0.00 W/m2
06:18 46.6 °F 42.9 °F 30.00 in SE 1.0 mph 8.0 mph 87% 0.00 in 0.00 W/m2
06:28 46.6 °F 42.9 °F 30.01 in SE 4.0 mph 8.0 mph 87% 0.00 in 0.00 W/m2
06:33 46.6 °F 42.9 °F 30.01 in SE 2.0 mph 9.0 mph 87% 0.00 in 0.00 W/m2
06:38 46.7 °F 43.3 °F 30.01 in SSE 4.0 mph 13.0 mph 88% 0.00 in 5.00 W/m2
06:43 46.8 °F 43.4 °F 30.01 in SE 8.0 mph 13.0 mph 88% 0.00 in 11.00 W/m2
06:48 46.9 °F 43.5 °F 30.01 in Calm   12.0 mph 88% 0.00 in 12.00 W/m2
06:53 46.9 °F 43.5 °F 30.01 in SE 11.0 mph 13.0 mph 88% 0.00 in 14.00 W/m2
06:58 47.1 °F 43.7 °F 30.01 in SSE 9.0 mph 14.0 mph 88% 0.00 in 23.00 W/m2
07:03 47.2 °F 43.8 °F 30.01 in Calm   9.0 mph 88% 0.00 in 33.00 W/m2
07:08 47.3 °F 43.9 °F 30.02 in Calm   11.0 mph 88% 0.00 in 56.00 W/m2
07:14 47.4 °F 44.0 °F 30.02 in SE 1.0 mph 13.0 mph 88% 0.00 in 72.00 W/m2
07:18 47.5 °F 44.1 °F 30.02 in SSE 9.0 mph 14.0 mph 88% 0.00 in 105.00 W/m2
07:24 47.6 °F 43.9 °F 30.01 in Calm   15.0 mph 87% 0.00 in 116.00 W/m2
07:29 47.7 °F 44.3 °F 30.01 in SSE 10.0 mph 14.0 mph 88% 0.00 in 88.00 W/m2
07:34 47.9 °F 44.5 °F 30.02 in SE 9.0 mph 12.0 mph 88% 0.00 in 93.00 W/m2
07:39 48.1 °F 44.7 °F 30.01 in SSE 11.0 mph 13.0 mph 88% 0.00 in 74.00 W/m2
07:44 48.3 °F 44.9 °F 30.01 in SE 1.0 mph 13.0 mph 88% 0.00 in 79.00 W/m2
07:49 48.5 °F 45.1 °F 30.01 in SE 8.0 mph 11.0 mph 88% 0.00 in 95.00 W/m2
07:59 48.9 °F 45.2 °F 30.01 in SSE 9.0 mph 13.0 mph 87% 0.00 in 120.00 W/m2
08:04 49.1 °F 45.4 °F 30.01 in Calm   11.0 mph 87% 0.00 in 111.00 W/m2
08:09 49.3 °F 45.6 °F 30.01 in Calm   13.0 mph 87% 0.00 in 84.00 W/m2
08:14 49.5 °F 45.5 °F 30.01 in SSE 1.0 mph 12.0 mph 86% 0.00 in 132.00 W/m2
08:19 49.6 °F 45.6 °F 30.01 in SE 7.0 mph 11.0 mph 86% 0.00 in 390.00 W/m2
08:24 49.8 °F 45.8 °F 30.01 in South 5.0 mph 18.0 mph 86% 0.00 in 100.00 W/m2
08:29 50.0 °F 46.0 °F 30.01 in South 4.0 mph 13.0 mph 86% 0.00 in 93.00 W/m2
08:34 50.2 °F 45.9 °F 30.01 in SSE 10.0 mph 12.0 mph 85% 0.00 in 62.00 W/m2
08:39 50.3 °F 46.0 °F 30.01 in SSE 8.0 mph 11.0 mph 85% 0.00 in 84.00 W/m2
08:44 50.5 °F 46.2 °F 30.01 in South 7.0 mph 10.0 mph 85% 0.00 in 121.00 W/m2
08:49 50.5 °F 46.2 °F 30.00 in SSE 6.0 mph 12.0 mph 85% 0.00 in 181.00 W/m2
08:54 50.6 °F 46.3 °F 30.00 in SSE 5.0 mph 15.0 mph 85% 0.00 in 162.00 W/m2
08:59 50.7 °F 46.4 °F 30.00 in Calm   12.0 mph 85% 0.00 in 148.00 W/m2
09:04 50.8 °F 46.2 °F 30.00 in SSE 6.0 mph 16.0 mph 84% 0.00 in 193.00 W/m2
09:09 50.9 °F 46.2 °F 30.00 in SSE 7.0 mph 14.0 mph 84% 0.00 in 142.00 W/m2
09:14 51.0 °F 46.3 °F 30.00 in Calm   11.0 mph 84% 0.00 in 134.00 W/m2
09:19 51.2 °F 46.5 °F 30.00 in SSE 9.0 mph 14.0 mph 84% 0.00 in 105.00 W/m2
09:24 51.3 °F 46.6 °F 30.00 in SSE 12.0 mph 14.0 mph 84% 0.00 in 137.00 W/m2
09:29 51.4 °F 46.7 °F 30.00 in Calm   12.0 mph 84% 0.00 in 128.00 W/m2
09:34 51.5 °F 47.2 °F 30.00 in Calm   11.0 mph 85% 0.00 in 186.00 W/m2
09:39 51.4 °F 46.7 °F 30.00 in South 5.0 mph 10.0 mph 84% 0.00 in 141.00 W/m2
09:44 51.4 °F 46.7 °F 30.00 in SSE 5.0 mph 15.0 mph 84% 0.00 in 130.00 W/m2
09:49 51.3 °F 46.6 °F 30.00 in SSE 7.0 mph 17.0 mph 84% 0.00 in 60.00 W/m2
09:54 51.2 °F 46.5 °F 30.00 in SSW 2.0 mph 22.0 mph 84% 0.00 in 70.00 W/m2
09:59 51.1 °F 46.4 °F 30.01 in SSE 13.0 mph 17.0 mph 84% 0.00 in 105.00 W/m2
10:04 51.0 °F 46.7 °F 30.00 in South 7.0 mph 13.0 mph 85% 0.00 in 77.00 W/m2
10:09 50.8 °F 46.5 °F 30.00 in SSE 11.0 mph 18.0 mph 85% 0.00 in 49.00 W/m2
10:14 50.6 °F 46.3 °F 30.00 in South 12.0 mph 18.0 mph 85% 0.00 in 69.00 W/m2
10:19 50.5 °F 46.5 °F 30.00 in SSW 2.0 mph 15.0 mph 86% 0.00 in 84.00 W/m2
10:24 50.4 °F 46.7 °F 30.00 in South 7.0 mph 16.0 mph 87% 0.00 in 88.00 W/m2
10:29 50.3 °F 46.6 °F 30.00 in SSE 11.0 mph 17.0 mph 87% 0.00 in 100.00 W/m2
10:34 50.1 °F 46.4 °F 30.00 in Calm   10.0 mph 87% 0.00 in 186.00 W/m2
10:39 50.0 °F 46.6 °F 30.00 in SSW 7.0 mph 17.0 mph 88% 0.00 in 100.00 W/m2
10:44 49.9 °F 46.5 °F 30.00 in SSE 13.0 mph 16.0 mph 88% 0.00 in 83.00 W/m2
10:49 49.8 °F 46.4 °F 30.00 in SE 2.0 mph 16.0 mph 88% 0.00 in 105.00 W/m2
10:54 49.7 °F 46.6 °F 30.00 in SSE 7.0 mph 15.0 mph 89% 0.00 in 69.00 W/m2
10:59 49.7 °F 46.6 °F 30.00 in South 8.0 mph 15.0 mph 89% 0.00 in 127.00 W/m2
11:05 49.6 °F 46.5 °F 30.00 in South 12.0 mph 17.0 mph 89% 0.00 in 104.00 W/m2
11:10 49.6 °F 46.5 °F 29.99 in SE 12.0 mph 18.0 mph 89% 0.00 in 118.00 W/m2
11:15 49.6 °F 46.5 °F 30.00 in SSE 4.0 mph 18.0 mph 89% 0.00 in 121.00 W/m2
11:20 49.6 °F 46.5 °F 30.00 in South 5.0 mph 13.0 mph 89% 0.00 in 93.00 W/m2
11:25 49.6 °F 46.5 °F 29.99 in South 8.0 mph 13.0 mph 89% 0.00 in 128.00 W/m2
11:30 49.6 °F 46.5 °F 30.00 in SSE 13.0 mph 19.0 mph 89% 0.00 in 132.00 W/m2
11:40 49.7 °F 46.6 °F 30.00 in SSE 6.0 mph 16.0 mph 89% 0.00 in 88.00 W/m2
11:45 49.8 °F 46.7 °F 29.99 in SSE 6.0 mph 14.0 mph 89% 0.00 in 97.00 W/m2
11:50 49.8 °F 46.7 °F 29.99 in SSE 1.0 mph 13.0 mph 89% 0.00 in 81.00 W/m2
11:55 49.9 °F 46.8 °F 29.99 in South 7.0 mph 11.0 mph 89% 0.00 in 77.00 W/m2
12:00 49.9 °F 46.8 °F 30.00 in SSE 12.0 mph 15.0 mph 89% 0.00 in 54.00 W/m2
12:05 50.0 °F 46.9 °F 30.00 in SE 4.0 mph 21.0 mph 89% 0.00 in 70.00 W/m2
12:10 50.0 °F 46.9 °F 29.99 in SSE 13.0 mph 21.0 mph 89% 0.00 in 84.00 W/m2
12:15 50.0 °F 46.9 °F 29.99 in SSW 11.0 mph 20.0 mph 89% 0.04 in 95.00 W/m2
12:21 50.1 °F 47.0 °F 29.99 in East 4.0 mph 22.0 mph 89% 0.04 in 132.00 W/m2
12:26 50.1 °F 47.0 °F 29.99 in SE 12.0 mph 23.0 mph 89% 0.04 in 97.00 W/m2
12:31 50.1 °F 47.0 °F 29.99 in SSE 15.0 mph 26.0 mph 89% 0.00 in 142.00 W/m2
12:36 50.2 °F 47.1 °F 29.98 in SSE 16.0 mph 22.0 mph 89% 0.00 in 188.00 W/m2
12:41 50.3 °F 47.2 °F 29.99 in SSE 12.0 mph 21.0 mph 89% 0.00 in 162.00 W/m2
12:46 50.4 °F 47.3 °F 29.98 in SSE 24.0 mph 26.0 mph 89% 0.00 in 127.00 W/m2
12:51 50.6 °F 47.5 °F 29.99 in SSW 6.0 mph 24.0 mph 89% 0.00 in 172.00 W/m2
12:56 50.8 °F 47.7 °F 29.99 in SSE 4.0 mph 21.0 mph 89% 0.00 in 125.00 W/m2
13:01 50.9 °F 47.8 °F 29.99 in SSE 6.0 mph 18.0 mph 89% 0.00 in 98.00 W/m2
13:06 51.0 °F 47.9 °F 29.99 in South 15.0 mph 21.0 mph 89% 0.00 in 111.00 W/m2
13:11 51.1 °F 48.0 °F 29.98 in South 4.0 mph 25.0 mph 89% 0.00 in 120.00 W/m2
13:16 51.3 °F 48.2 °F 29.98 in SE 15.0 mph 22.0 mph 89% 0.00 in 202.00 W/m2
13:21 51.5 °F 48.4 °F 29.98 in SSE 11.0 mph 18.0 mph 89% 0.00 in 341.00 W/m2
13:26 51.7 °F 48.6 °F 29.99 in South 7.0 mph 19.0 mph 89% 0.00 in 95.00 W/m2
13:31 51.8 °F 48.7 °F 29.98 in South 13.0 mph 19.0 mph 89% 0.00 in 65.00 W/m2
13:36 51.8 °F 48.7 °F 29.99 in SSE 12.0 mph 17.0 mph 89% 0.00 in 190.00 W/m2
13:41 51.9 °F 48.8 °F 29.98 in SSE 12.0 mph 17.0 mph 89% 0.00 in 276.00 W/m2
13:46 52.2 °F 49.1 °F 29.98 in SSE 5.0 mph 13.0 mph 89% 0.00 in 141.00 W/m2
13:51 52.4 °F 49.3 °F 29.97 in SSE 9.0 mph 21.0 mph 89% 0.00 in 162.00 W/m2
13:52 52.5 °F 49.4 °F 29.97 in South 9.0 mph 15.0 mph 89% 0.00 in 165.00 W/m2
13:57 52.7 °F 49.8 °F 29.97 in South 14.0 mph 14.0 mph 90% 0.00 in 457.00 W/m2
14:02 53.0 °F 50.2 °F 29.97 in Calm   14.0 mph 90% 0.00 in 183.00 W/m2
14:07 53.3 °F 50.5 °F 29.97 in SSE 13.0 mph 20.0 mph 90% 0.00 in 237.00 W/m2
14:12 53.5 °F 50.6 °F 29.96 in SE 11.0 mph 17.0 mph 90% 0.00 in 141.00 W/m2
14:17 53.3 °F 50.2 °F 29.96 in SSE 15.0 mph 18.0 mph 89% 0.00 in 179.00 W/m2
14:22 53.3 °F 50.2 °F 29.96 in Calm   15.0 mph 89% 0.00 in 84.00 W/m2
14:27 53.3 °F 50.2 °F 29.97 in South 10.0 mph 10.0 mph 89% 0.00 in 33.00 W/m2
14:32 53.3 °F 50.2 °F 29.96 in SW 1.0 mph 10.0 mph 89% 0.04 in 28.00 W/m2
14:37 53.2 °F 50.0 °F 29.96 in South 2.0 mph 15.0 mph 89% 0.25 in 84.00 W/m2
14:42 53.1 °F 50.0 °F 29.96 in Calm   14.0 mph 89% 0.27 in 62.00 W/m2
14:47 53.0 °F 49.8 °F 29.97 in WSW 5.0 mph 12.0 mph 89% 0.29 in 98.00 W/m2
14:52 52.9 °F 49.8 °F 29.96 in SSE 4.0 mph 12.0 mph 89% 0.27 in 195.00 W/m2
14:54 52.9 °F 49.8 °F 29.96 in SSW 3.0 mph 20.0 mph 89% 0.26 in 102.00 W/m2
14:59 52.8 °F 49.7 °F 29.96 in SSW 6.0 mph 20.0 mph 89% 0.25 in 123.00 W/m2
15:04 52.8 °F 49.7 °F 29.96 in WSW 4.0 mph 16.0 mph 89% 0.23 in 169.00 W/m2
15:09 52.7 °F 49.5 °F 29.96 in WSW 4.0 mph 17.0 mph 89% 0.20 in 84.00 W/m2
15:14 52.6 °F 49.5 °F 29.96 in SSE 10.0 mph 22.0 mph 89% 0.17 in 54.00 W/m2
15:19 52.4 °F 49.3 °F 29.96 in Calm   13.0 mph 89% 0.18 in 65.00 W/m2
15:24 52.3 °F 49.2 °F 29.96 in SW 3.0 mph 14.0 mph 89% 0.14 in 44.00 W/m2
15:29 52.2 °F 49.1 °F 29.96 in SSE 6.0 mph 13.0 mph 89% 0.14 in 47.00 W/m2
15:34 51.9 °F 48.8 °F 29.96 in SSW 4.0 mph 13.0 mph 89% 0.09 in 54.00 W/m2
15:39 51.8 °F 48.7 °F 29.96 in SW 9.0 mph 12.0 mph 89% 0.08 in 77.00 W/m2
15:44 51.7 °F 48.6 °F 29.96 in South 6.0 mph 12.0 mph 89% 0.05 in 74.00 W/m2
15:49 51.5 °F 48.4 °F 29.95 in SW 4.0 mph 13.0 mph 89% 0.00 in 86.00 W/m2
15:54 51.3 °F 48.2 °F 29.95 in SSW 8.0 mph 16.0 mph 89% 0.00 in 53.00 W/m2
15:59 51.2 °F 48.1 °F 29.95 in Calm   13.0 mph 89% 0.00 in 42.00 W/m2
16:04 50.9 °F 47.8 °F 29.95 in SSW 6.0 mph 12.0 mph 89% 0.00 in 44.00 W/m2
16:09 50.8 °F 47.7 °F 29.94 in Calm   7.0 mph 89% 0.00 in 54.00 W/m2
16:14 50.7 °F 47.6 °F 29.94 in Calm   8.0 mph 89% 0.00 in 32.00 W/m2
16:20 50.6 °F 47.5 °F 29.94 in SW 6.0 mph 9.0 mph 89% 0.00 in 32.00 W/m2
16:25 50.5 °F 47.4 °F 29.94 in Calm   12.0 mph 89% 0.00 in 33.00 W/m2
16:30 50.2 °F 47.1 °F 29.94 in Calm   11.0 mph 89% 0.00 in 28.00 W/m2
16:35 50.1 °F 47.0 °F 29.94 in Calm   12.0 mph 89% 0.00 in 23.00 W/m2
16:40 50.0 °F 46.9 °F 29.94 in SW 2.0 mph 13.0 mph 89% 0.00 in 21.00 W/m2
16:45 49.9 °F 47.1 °F 29.94 in SSW 7.0 mph 12.0 mph 90% 0.00 in 26.00 W/m2
16:50 49.9 °F 46.8 °F 29.94 in Calm   16.0 mph 89% 0.00 in 19.00 W/m2
16:55 49.8 °F 46.7 °F 29.94 in SW 5.0 mph 9.0 mph 89% 0.00 in 25.00 W/m2
17:00 49.7 °F 46.6 °F 29.95 in SW 3.0 mph 12.0 mph 89% 0.00 in 18.00 W/m2
17:06 49.6 °F 46.8 °F 29.94 in WSW 6.0 mph 7.0 mph 90% 0.00 in 16.00 W/m2
17:11 49.6 °F 46.8 °F 29.94 in SW 2.0 mph 7.0 mph 90% 0.00 in 23.00 W/m2
17:16 49.5 °F 46.7 °F 29.94 in Calm     90% 0.00 in 18.00 W/m2
17:21 49.5 °F 46.7 °F 29.94 in South 6.0 mph 7.0 mph 90% 0.00 in 16.00 W/m2
17:26 49.5 °F 46.7 °F 29.93 in Calm     90% 0.00 in 19.00 W/m2
17:36 49.5 °F 46.7 °F 29.93 in Calm     90% 0.00 in 19.00 W/m2
17:41 49.4 °F 46.6 °F 29.93 in Calm     90% 0.00 in 25.00 W/m2
17:46 49.4 °F 46.6 °F 29.93 in Calm     90% 0.00 in 19.00 W/m2
17:51 49.4 °F 46.6 °F 29.93 in SW 1.0 mph 9.0 mph 90% 0.00 in 12.00 W/m2
17:56 49.4 °F 46.6 °F 29.93 in South 7.0 mph 7.0 mph 90% 0.00 in 14.00 W/m2
18:01 49.4 °F 46.6 °F 29.93 in SSW 1.0 mph 7.0 mph 90% 0.00 in 16.00 W/m2
18:06 49.3 °F 46.5 °F 29.93 in Calm     90% 0.00 in 12.00 W/m2
18:12 49.3 °F 46.5 °F 29.92 in Calm     90% 0.00 in 12.00 W/m2
18:17 49.3 °F 46.5 °F 29.92 in Calm   10.0 mph 90% 0.00 in 9.00 W/m2
18:22 49.2 °F 46.4 °F 29.92 in South 9.0 mph 12.0 mph 90% 0.00 in 7.00 W/m2
18:27 49.2 °F 46.4 °F 29.92 in SSW 5.0 mph 7.0 mph 90% 0.00 in 9.00 W/m2
18:32 49.2 °F 46.4 °F 29.92 in South 5.0 mph 10.0 mph 90% 0.00 in 9.00 W/m2
18:37 49.2 °F 46.4 °F 29.92 in South 7.0 mph 7.0 mph 90% 0.00 in 7.00 W/m2
18:42 49.2 °F 46.4 °F 29.92 in SSW 8.0 mph 8.0 mph 90% 0.00 in 11.00 W/m2
18:47 49.2 °F 46.4 °F 29.92 in Calm     90% 0.00 in 9.00 W/m2
18:52 49.2 °F 46.4 °F 29.92 in Calm   5.0 mph 90% 0.00 in 7.00 W/m2
18:57 49.2 °F 46.4 °F 29.91 in SSW 8.0 mph 8.0 mph 90% 0.00 in 5.00 W/m2
19:02 49.3 °F 46.5 °F 29.92 in SSW 1.0 mph 1.0 mph 90% 0.00 in 0.00 W/m2
19:07 49.3 °F 46.5 °F 29.92 in South 4.0 mph 9.0 mph 90% 0.00 in 0.00 W/m2
19:12 49.3 °F 46.5 °F 29.91 in South 9.0 mph 9.0 mph 90% 0.00 in 0.00 W/m2
19:13 49.3 °F 46.5 °F 29.91 in Calm   9.0 mph 90% 0.00 in 0.00 W/m2
19:18 49.3 °F 46.5 °F 29.90 in WSW 8.0 mph 9.0 mph 90% 0.00 in 0.00 W/m2
19:23 49.3 °F 46.5 °F 29.91 in WSW 2.0 mph 14.0 mph 90% 0.00 in 0.00 W/m2
19:28 49.3 °F 46.5 °F 29.91 in SW 10.0 mph 11.0 mph 90% 0.00 in 0.00 W/m2
19:33 49.2 °F 46.4 °F 29.91 in Calm   15.0 mph 90% 0.00 in 0.00 W/m2
19:38 49.2 °F 46.4 °F 29.91 in SW 10.0 mph 13.0 mph 90% 0.00 in 0.00 W/m2
19:43 49.1 °F 46.3 °F 29.91 in South 10.0 mph 13.0 mph 90% 0.00 in 0.00 W/m2
19:48 49.1 °F 46.3 °F 29.91 in SW 9.0 mph 14.0 mph 90% 0.00 in 0.00 W/m2
19:53 49.0 °F 46.2 °F 29.91 in SSW 7.0 mph 12.0 mph 90% 0.00 in 0.00 W/m2
19:58 48.9 °F 46.1 °F 29.91 in SW 3.0 mph 10.0 mph 90% 0.00 in 0.00 W/m2
19:59 48.8 °F 46.0 °F 29.92 in SSW 4.0 mph 10.0 mph 90% 0.00 in 0.00 W/m2
20:04 48.7 °F 45.9 °F 29.92 in SSW 5.0 mph 13.0 mph 90% 0.00 in 0.00 W/m2
20:07 48.5 °F 45.7 °F 29.92 in WSW 5.0 mph 9.0 mph 90% 0.00 in 0.00 W/m2
20:12 48.3 °F 45.5 °F 29.92 in SW 4.0 mph 13.0 mph 90% 0.00 in 0.00 W/m2
20:17 48.2 °F 45.4 °F 29.92 in West 1.0 mph 8.0 mph 90% 0.00 in 0.00 W/m2
20:22 48.1 °F 45.3 °F 29.92 in SW 9.0 mph 14.0 mph 90% 0.00 in 0.00 W/m2
20:28 47.9 °F 45.1 °F 29.92 in Calm   9.0 mph 90% 0.00 in 0.00 W/m2
20:33 47.8 °F 45.0 °F 29.92 in Calm   9.0 mph 90% 0.00 in 0.00 W/m2
20:38 47.5 °F 44.7 °F 29.92 in SW 5.0 mph 8.0 mph 90% 0.00 in 0.00 W/m2
20:43 47.3 °F 44.5 °F 29.92 in Calm   9.0 mph 90% 0.04 in 0.00 W/m2
20:48 47.2 °F 44.4 °F 29.93 in Calm     90% 0.04 in 0.00 W/m2
20:53 47.0 °F 44.2 °F 29.92 in SSW 6.0 mph 9.0 mph 90% 0.04 in 0.00 W/m2
20:58 46.9 °F 44.1 °F 29.93 in South 4.0 mph 9.0 mph 90% 0.05 in 0.00 W/m2
21:03 46.9 °F 44.1 °F 29.93 in SW 9.0 mph 9.0 mph 90% 0.05 in 0.00 W/m2
21:08 46.9 °F 44.1 °F 29.94 in SW 5.0 mph 8.0 mph 90% 0.07 in 0.00 W/m2
21:13 46.9 °F 44.1 °F 29.93 in SW 4.0 mph 9.0 mph 90% 0.07 in 0.00 W/m2
21:18 46.8 °F 44.0 °F 29.94 in SW 5.0 mph 11.0 mph 90% 0.06 in 0.00 W/m2
21:23 46.7 °F 43.9 °F 29.94 in Calm   8.0 mph 90% 0.08 in 0.00 W/m2
21:28 46.6 °F 43.8 °F 29.94 in SSW 6.0 mph 8.0 mph 90% 0.08 in 0.00 W/m2
21:33 46.5 °F 43.7 °F 29.93 in Calm   11.0 mph 90% 0.07 in 0.00 W/m2
21:38 46.5 °F 43.7 °F 29.94 in Calm     90% 0.09 in 0.00 W/m2
21:43 46.5 °F 43.7 °F 29.94 in Calm   7.0 mph 90% 0.08 in 0.00 W/m2
21:48 46.4 °F 43.6 °F 29.94 in Calm     90% 0.07 in 0.00 W/m2
21:53 46.3 °F 43.5 °F 29.94 in SSW 3.0 mph 3.0 mph 90% 0.08 in 0.00 W/m2
21:58 46.3 °F 43.5 °F 29.94 in Calm     90% 0.08 in 0.00 W/m2
22:03 46.2 °F 43.4 °F 29.94 in Calm   9.0 mph 90% 0.07 in 0.00 W/m2
22:08 46.2 °F 43.4 °F 29.94 in SSW 9.0 mph 9.0 mph 90% 0.08 in 0.00 W/m2
22:13 46.1 °F 43.3 °F 29.94 in SW 7.0 mph 9.0 mph 90% 0.08 in 0.00 W/m2
22:18 46.1 °F 43.3 °F 29.95 in Calm   5.0 mph 90% 0.07 in 0.00 W/m2
22:23 46.1 °F 43.3 °F 29.94 in WSW 7.0 mph 10.0 mph 90% 0.08 in 0.00 W/m2
22:28 46.0 °F 43.2 °F 29.95 in SW 9.0 mph 9.0 mph 90% 0.08 in 0.00 W/m2
22:29 46.0 °F 43.2 °F 29.94 in SW 6.0 mph 9.0 mph 90% 0.08 in 0.00 W/m2
22:34 46.0 °F 43.2 °F 29.94 in South 6.0 mph 13.0 mph 90% 0.07 in 0.00 W/m2
22:39 46.0 °F 43.2 °F 29.94 in Calm   15.0 mph 90% 0.07 in 0.00 W/m2
22:44 46.0 °F 43.2 °F 29.94 in South 10.0 mph 16.0 mph 90% 0.07 in 0.00 W/m2
22:49 45.9 °F 43.1 °F 29.94 in South 10.0 mph 13.0 mph 90% 0.07 in 0.00 W/m2
22:54 46.0 °F 43.2 °F 29.94 in SSW 4.0 mph 12.0 mph 90% 0.06 in 0.00 W/m2
22:59 46.0 °F 43.2 °F 29.94 in SSW 6.0 mph 15.0 mph 90% 0.07 in 0.00 W/m2
23:04 46.0 °F 43.2 °F 29.94 in Calm   14.0 mph 90% 0.07 in 0.00 W/m2
23:09 46.0 °F 43.2 °F 29.94 in SSE 12.0 mph 12.0 mph 90% 0.06 in 0.00 W/m2
23:14 46.1 °F 43.3 °F 29.94 in Calm   18.0 mph 90% 0.06 in 0.00 W/m2
23:19 46.1 °F 43.3 °F 29.94 in SSW 6.0 mph 17.0 mph 90% 0.06 in 0.00 W/m2
23:24 46.1 °F 43.3 °F 29.94 in South 8.0 mph 17.0 mph 90% 0.06 in 0.00 W/m2
23:29 46.1 °F 43.3 °F 29.94 in SSW 8.0 mph 13.0 mph 90% 0.06 in 0.00 W/m2
23:34 46.2 °F 43.4 °F 29.94 in South 18.0 mph 18.0 mph 90% 0.05 in 0.00 W/m2
23:39 46.1 °F 43.3 °F 29.94 in SW 10.0 mph 21.0 mph 90% 0.05 in 0.00 W/m2
23:44 46.1 °F 43.3 °F 29.94 in South 5.0 mph 18.0 mph 90% 0.06 in 0.00 W/m2
23:49 46.0 °F 43.2 °F 29.93 in SSE 5.0 mph 11.0 mph 90% 0.06 in 0.00 W/m2
23:54 46.0 °F 43.2 °F 29.93 in South 12.0 mph 17.0 mph 90% 0.05 in 0.00 W/m2
23:59 45.9 °F 43.1 °F 29.94 in South 11.0 mph 18.0 mph 90% 0.05 in 0.00 W/m2
Foresthill Weather
 WU-history PHP script courtesy of   Juneau County Weather.
powered by Cumulus v1.9.3 (1059)
Ambient Weather VWS v14.00
Top Contact Website Map Copyright © 2007 - 2018 Foresthillweather.com Never base important decisions on this or any weather information obtained from the Internet